Weather in Spartak

Russia / Tula Oblast     53°26′16″N   37°08′13″E
temp.,
°C
wind,
m/s
gust,
m/s
humid.,
%
clouds,
%
prec.,
mm/h
press.,
hPa
HPBL,
m
9 may, sun
sun900:00+7w2596100 0.0 1003225
03:00+6nw71096100 2.1 1005641
06:00+4nw71297100 1.4 1008883
09:00+3nw81396100 2.1 1011885
12:00+4nw81295100 0.4 1014945
15:00+7nw9127399 1.0 10161479
18:00+7nw5127199 0.1 10181686
21:00+5nw413835 0.2 1020317
10 may, mon
mon1000:00+4nw513825 0.0 1022255
03:00+2nnw413834 0.0 1024289
06:00+3n513790 0.0 1025316
09:00+8n711580 0.0 10261183
12:00+10n810460 0.0 10261440
15:00+12nne811495 0.0 10251561
18:00+11nne71261100 0.0 10251170
21:00+9nne71464100 0.0 1025681
11 may, tue
tue1100:00+7nne7157092 0.0 1025473
03:00+7nne7167767 0.0 1024391
06:00+8nne7168392 0.0 1024424
09:00+12ne81578100 0.1 1023550
12:00+16ene8117181 0.0 10231122
15:00+15e71182100 0.3 1023865
18:00+13ese6108491 0.1 1025835
21:00+9ene36925 0.1 102591
12 may, wed
wed1200:00+9se3887100 0.0 1025185
03:00+8ese2590100 0.9 1025177
06:00+8ene249392 1.3 1024152
09:00+12e457518 1.3 1023675
12:00+15ese575978 0.1 10221667
15:00+13e787578 0.3 1021923
18:00+12ese598476 0.3 1020791
21:00+10e499114 0.3 1020215
13 may, thu
thu1300:00+9ese5129674 0.0 1020302
03:00+10se5138982 0.1 1019382
06:00+10se489287 0.0 1020280
09:00+14se58745 0.0 1020631
12:00+18se686149 0.0 10191343
15:00+19se575630 0.0 10181621
18:00+18se4767100 0.0 1018576
21:00+14ese3480100 0.0 101746